Location: Ammerl�gen
(47.2167°N, 9.6000°E)
Time: 03:36:26
(UTC+00:00)

NOAA 19 - Pass Details

Date: 07 December 2021
Orbit: 841 x 860 km, 99.2° (Epoch: 16 January)

Event Time Altitude Azimuth Distance (km) Brightness Sun altitude
Rises 17:57:38 0° 165° (SSE) 3,384 8.3 -23.8°
Reaches altitude 10° 17:59:58 10° 166° (SSE) 2,454 7.5 -24.2°
Maximum altitude 18:05:26 84° 254° (WSW) 855 5.1 -25.1°
Drops below altitude 10° 18:10:57 10° 344° (NNW) 2,481 7.7 -26.0°
Sets 18:13:20 0° 345° (NNW) 3,423 8.5 -26.5°
